This is the latest recevied weather packets stored in our database for station/object KC5DAQ-28. If no packets are shown the sender has not sent any weather packets the latest 10 day(s).
| Time | Temp. | Humidity | Pressure | Rain* | Wind** | Luminosity | Snow |
|---|---|---|---|---|---|---|---|
| 1777828202 | 24.44° C | 47% | 1016.8 hPa | 0 mm | - | 1073 W/m² | - |
| 1777828143 | 24.44° C | 47% | 1016.9 hPa | 0 mm | - | 1073 W/m² | - |
| 1777828084 | 24.44° C | 48% | 1016.9 hPa | 0 mm | - | 1066 W/m² | - |
| 1777828023 | 24.44° C | 48% | 1016.9 hPa | 0 mm | - | 1066 W/m² | - |
| 1777827962 | 24.44° C | 45% | 1017 hPa | 0 mm | - | 1062 W/m² | - |
| 1777827905 | 25° C | 47% | 1017.1 hPa | 0 mm | - | 1062 W/m² | - |
| 1777827843 | 25° C | 47% | 1017 hPa | 0 mm | - | 1062 W/m² | - |
| 1777827784 | 25° C | 46% | 1017 hPa | 0 mm | - | 1055 W/m² | - |
| 1777827724 | 25° C | 46% | 1017 hPa | 0 mm | - | 1055 W/m² | - |
| 1777827663 | 25° C | 47% | 1017 hPa | 0 mm | - | 1055 W/m² | - |
| 1777827603 | 24.44° C | 45% | 1017 hPa | 0 mm | - | 1055 W/m² | - |
| 1777827544 | 24.44° C | 45% | 1017 hPa | 0 mm | - | 1053 W/m² | - |
| 1777827485 | 24.44° C | 46% | 1016.9 hPa | 0 mm | - | 1052 W/m² | - |
| 1777827423 | 25° C | 47% | 1016.9 hPa | 0 mm | - | 1052 W/m² | - |
| 1777827362 | 24.44° C | 47% | 1017 hPa | 0 mm | - | 1046 W/m² | - |
| 1777827305 | 25° C | 47% | 1017 hPa | 0 mm | - | 1044 W/m² | - |
| 1777827242 | 25° C | 47% | 1017 hPa | 0 mm | - | 1044 W/m² | - |
| 1777827182 | 25° C | 46% | 1017 hPa | 0 mm | - | 1043 W/m² | - |
| 1777827123 | 25° C | 46% | 1017 hPa | 0 mm | - | 1043 W/m² | - |
| 1777827064 | 25° C | 47% | 1016.9 hPa | 0 mm | - | 1034 W/m² | - |
| 1777827004 | 25° C | 47% | 1016.9 hPa | 0 mm | - | 1034 W/m² | - |
| 1777826944 | 24.44° C | 47% | 1016.9 hPa | 0 mm | - | 1034 W/m² | - |
| 1777826883 | 25° C | 46% | 1017.1 hPa | 0 mm | - | 1027 W/m² | - |
| 1777826822 | 25° C | 46% | 1017 hPa | 0 mm | - | 1027 W/m² | - |
| 1777826763 | 25° C | 47% | 1017 hPa | 0 mm | - | 1023 W/m² | - |
* Rain latest hour (hover to see other rain measurements)
** Current wind speed in m/s (hover to see current wind gust speed)